User: anonymous   Login
Location: Unspecified
(0.0000°N, 0.0000°E)
Time: 10:05:42
(UTC+00:00)
Language:

TerraSAR-X - Orbit

View from above orbital plane
View from above orbital plane
View from above satellite
View from above satellite

Ground track
Ground track

The orbit data is extracted from the following two-line orbital elements,

1 31698U 07026A   19196.26773595  .00001773  00000-0  87561-4 0  9991
2 31698  97.4444 203.1151 0001874 104.3636  19.0159 15.19157907669952
Epoch (UTC): 15 July 2019 06:25:32
Eccentricity: 0.0001874
inclination: 97.4444°
perigee height: 507 km
apogee height: 509 km
right ascension of ascending node: 203.1151°
argument of perigee: 104.3636°
revolutions per day: 15.19157907
mean anomaly at epoch: 19.0159°
orbit number at epoch: 66995

The dashed part of the orbit path shows where the satellite is in the earth's shadow,  

DLR